SPACEBEE-143 (52394 NORAD) Tracking and Keplerian Element Data
This shows tracking and keplerian element data for the satellite.
Feedback or suggestion? Click here.
Element | Value |
Catalog | 52394 |
Name | SPACEBEE-143 |
Epoch Orbit | 812 |
Epoch Day | 166.95938443 |
Epoch Year | 2022 |
RAAN | 251.8885 |
Inclination | 97.4504 |
Eccentricity | 0.0009671 |
Argument of Perigee | 171.355 |
Mean Anonmoly | 188.785 |
Mean Motion | 15.13380086 |
Decay Rate | 0.00010542 |
L1 | 1 52394U 22047A 22166.95938443 .00010542 00000+0 59341-3 0 9996 |
L2 | 2 52394 97.4504 251.8885 0009671 171.3550 188.7850 15.13380086 8129 |
Live tracking and technical data element details for SPACEBEE-143 (NORAD 52394). SPACEBEE-143 can be tracked NOW for your location showing map with azimuth and elevation plus other details from your city location.
Track the satellite on the map from your city or location and see movement details for azimuth, elevation, latitude, longitude, range, height, and movement on the map or in text.
IsCatalogInMostPopularTable: catalog: 52394, numindb: 1
Update: records affected: 1
GetName: 52394 SPACEBEE-143
Hit Count: updated at: Mon, 27 Jun 2022 04:56:33 GMT